sat.trackr.live / text

‹ back to catalog

STARLINK-36097

NORAD 67091 · 2025-298S

PAYLOAD ACTIVE UNKNOWN

§ Identity

Operator
Country
US
Launch date
2025-12-14
Launch site
AFWTR
Launch vehicle
Mass (kg)
RCS (m²)

Purposes: comms

External: N2YO · Heavens-Above · Gunter

§ Orbital elements

Epoch: 2026-05-25T03:21:09.768096Z

Period
93.77 min
Inclination
69.9947°
Eccentricity
0.0006280
Mean motion
15.35734247 rev/d
Perigee alt
454.4 km
Apogee alt
463.0 km
Semi-major
6,836.9 km
B*
2.4175e-3
RAAN
170.7040°
Arg perigee
288.9287°
Mean anomaly
71.1210°
Rev number
2,494

§ Raw data

STARLINK-360971 67091U 25298S   26145.13969639  .00085119  00000+0  24175-2 0  99972 67091  69.9947 170.7040 0006280 288.9287  71.1210 15.35734247 24940

JSON: /api/v1/satellites/67091 · /tle

For live sub-satellite position, see the globe view (requires WebGL).

§ Visibility from observer

Set your observer location to see the next 7 days of passes ≥ 10°. The values pass through the URL so the page stays shareable.

No JS? Fill the form by hand. The geolocation button needs JavaScript.